This demonstration page uses our WeatherBlox Daily Observations layout. Learn more.

Left ArrowRight Arrow

Hourly Observations for August 28, 2022

Temp ( °F °C ) Dew Point ( °F °C ) Humidity (%) Winds ( mph kmh ) Pressure ( in mb ) Visibility ( mi km ) Precip ( " mm )
12:52 am 00:52 Clear 76 24.4 69 20.6 79 79 SSE 13 20 29.82 1010 10 16 0.00 0.00
1:52 am 01:52 Clear 75 23.9 69 20.6 82 82 SSE 10 17 29.82 1010 10 16 0.00 0.00
2:52 am 02:52 Partly Cloudy 76 24.4 69 20.6 79 79 S 10 17 29.81 1010 10 16 0.00 0.00
3:52 am 03:52 Cloudy 75 23.9 69 20.6 82 82 S 10 17 29.82 1010 10 16 0.00 0.00
4:52 am 04:52 Mostly Clear 74 23.3 69 20.6 85 85 SSE 10 17 29.81 1010 10 16 0.00 0.00
5:52 am 05:52 Clear 74 23.3 69 20.6 85 85 S 8 13 29.82 1010 10 16 0.00 0.00
6:52 am 06:52 Mostly Sunny 74 23.3 69 20.6 85 85 SSE 10 17 29.83 1010 10 16 0.00 0.00
7:52 am 07:52 Mostly Sunny 76 24.4 70 21.1 82 82 SSE 10 17 29.83 1010 10 16 0.00 0.00
8:52 am 08:52 Mostly Sunny 77 25 71 21.7 82 82 SSE 12 19 29.83 1010 10 16 0.00 0.00
9:52 am 09:52 Sunny 81 27.2 72 22.2 74 74 S 14 22 29.83 1010 10 16 0.00 0.00
10:40 am 10:40 Mostly Cloudy with Nearby Thunderstorms 82 27.8 72 22.2 72 72 SW 9 15 29.82 1010 10 16 0.00 0.00
10:52 am 10:52 Mostly Cloudy with Nearby Thunderstorms 81 27.2 72 22.2 74 74 W 8 13 29.85 1011 10 16 0.00 0.00
11:04 am 11:04 Cloudy 81 27.2 72 22.2 74 74 WSW 7 11 29.82 1010 10 16 0.00 0.00
11:52 am 11:52 Mostly Sunny 81 27.2 73 22.8 77 77 SW 8 13 29.83 1010 10 16 0.01 0.13
12:52 pm 12:52 Mostly Cloudy with Light Rain 78 25.6 73 22.8 85 85 W 7 11 29.84 1011 9 14 0.01 0.25
1:52 pm 13:52 Partly Cloudy 79 26.1 75 23.9 88 88 ESE 3 6 29.81 1010 10 16 0.02 0.51
2:52 pm 14:52 Sunny 84 28.9 71 21.7 65 65 SE 15 24 29.80 1009 10 16 0.00 0.00
3:52 pm 15:52 Sunny 84 28.9 70 21.1 63 63 S 12 19 29.77 1008 10 16 0.00 0.00
4:52 pm 16:52 Sunny 88 31.1 72 22.2 59 59 SSE 12 19 29.75 1007 10 16 0.00 0.00
5:52 pm 17:52 Sunny 87 30.6 74 23.3 65 65 S 14 22 29.75 1007 10 16 0.00 0.00
6:52 pm 18:52 Sunny 84 28.9 73 22.8 70 70 SSE 14 22 29.77 1008 10 16 0.00 0.00
7:52 pm 19:52 Clear 81 27.2 72 22.2 74 74 SSE 13 20 29.78 1008 10 16 0.00 0.00
8:52 pm 20:52 Clear 78 25.6 73 22.8 85 85 SSE 10 17 29.79 1009 10 16 0.00 0.00
9:52 pm 21:52 Clear 78 25.6 72 22.2 82 82 SSE 12 19 29.81 1009 10 16 0.00 0.00
10:52 pm 22:52 Clear 78 25.6 72 22.2 82 82 SSE 10 17 29.83 1010 10 16 0.00 0.00
11:52 pm 23:52 Clear 77 25 72 22.2 84 84 SSE 10 17 29.84 1011 10 16 0.00 0.00

Powered by AerisWeather